| time (UTC) | temp C | wind direction | speed KPH | gust KPH | rain 1hr cm | rain 24hr cm | rain mn cm | humidity % | barometer mb |
| 20260504100127 | 7 | 0 | 0.0 | 0.0 | 0.00 | 0.00 | 0.00 | 72 | 1010.0 |
| 20260504090128 | 7 | 163 | 1.6 | 1.6 | 0.00 | 0.00 | 0.00 | 71 | 1010.0 |
| 20260504081627 | 8 | 0 | 0.0 | 0.0 | 0.00 | 0.00 | 0.00 | 69 | 1010.0 |
| 20260504081127 | 9 | 0 | 0.0 | 0.0 | 0.00 | 0.00 | 0.00 | 69 | 1010.0 |
| 20260504080627 | 9 | 0 | 0.0 | 0.0 | 0.00 | 0.00 | 0.00 | 69 | 1010.0 |
| 20260504080128 | 9 | 254 | 0.0 | 0.0 | 0.00 | 0.00 | 0.00 | 69 | 1010.0 |
| 20260504070127 | 10 | 269 | 1.6 | 1.6 | 0.00 | 0.00 | 0.00 | 62 | 1010.0 |
| 20260504060127 | 12 | 217 | 0.0 | 1.6 | 0.00 | 0.00 | 0.00 | 61 | 1009.0 |
| 20260504050627 | 15 | 146 | 3.2 | 6.4 | 0.00 | 0.00 | 0.00 | 48 | 1009.0 |
| 20260504050127 | 15 | 144 | 3.2 | 4.8 | 0.00 | 0.00 | 0.00 | 50 | 1009.0 |
| 20260504045627 | 15 | 151 | 3.2 | 4.8 | 0.00 | 0.00 | 0.00 | 49 | 1009.0 |
| 20260504045128 | 15 | 167 | 3.2 | 3.2 | 0.00 | 0.00 | 0.00 | 45 | 1009.0 |
| 20260504044627 | 16 | 145 | 4.8 | 6.4 | 0.00 | 0.00 | 0.00 | 49 | 1009.0 |
| 20260504044127 | 16 | 149 | 1.6 | 3.2 | 0.00 | 0.00 | 0.00 | 50 | 1009.0 |
| 20260504043629 | 16 | 137 | 1.6 | 6.4 | 0.00 | 0.00 | 0.00 | 48 | 1009.0 |
| 20260504043128 | 16 | 125 | 0.0 | 1.6 | 0.00 | 0.00 | 0.00 | 46 | 1009.0 |
| 20260504042627 | 17 | 184 | 3.2 | 3.2 | 0.00 | 0.00 | 0.00 | 43 | 1009.0 |
| 20260504042128 | 16 | 131 | 3.2 | 3.2 | 0.00 | 0.00 | 0.00 | 51 | 1009.0 |
| 20260504041627 | 17 | 140 | 1.6 | 3.2 | 0.00 | 0.00 | 0.00 | 49 | 1009.0 |
| 20260504041127 | 18 | 0 | 0.0 | 0.0 | 0.00 | 0.00 | 0.00 | 45 | 1009.0 |
| 20260504040627 | 18 | 165 | 0.0 | 3.2 | 0.00 | 0.00 | 0.00 | 44 | 1009.0 |
| 20260504040127 | 18 | 175 | 0.0 | 3.2 | 0.00 | 0.00 | 0.00 | 45 | 1009.0 |
| 20260504035627 | 19 | 191 | 1.6 | 3.2 | 0.00 | 0.00 | 0.00 | 41 | 1008.0 |
| 20260504035127 | 20 | 185 | 1.6 | 4.8 | 0.00 | 0.00 | 0.00 | 40 | 1008.0 |
| 20260504034627 | 20 | 167 | 3.2 | 4.8 | 0.00 | 0.00 | 0.00 | 39 | 1008.0 |
| 20260504034128 | 20 | 170 | 3.2 | 6.4 | 0.00 | 0.00 | 0.00 | 40 | 1008.0 |
| 20260504033627 | 21 | 150 | 1.6 | 4.8 | 0.00 | 0.00 | 0.00 | 37 | 1008.0 |
| 20260504033127 | 21 | 163 | 3.2 | 4.8 | 0.00 | 0.00 | 0.00 | 37 | 1008.0 |
| 20260504032627 | 22 | 178 | 1.6 | 1.6 | 0.00 | 0.00 | 0.00 | 33 | 1008.0 |
| 20260504032127 | 22 | 203 | 3.2 | 4.8 | 0.00 | 0.00 | 0.00 | 33 | 1008.0 |
| 20260504031627 | 22 | 307 | 1.6 | 3.2 | 0.00 | 0.00 | 0.00 | 33 | 1008.0 |
| 20260504031130 | 22 | 286 | 0.0 | 1.6 | 0.00 | 0.00 | 0.00 | 33 | 1008.0 |
| 20260504030627 | 23 | 273 | 1.6 | 3.2 | 0.00 | 0.00 | 0.00 | 32 | 1008.0 |
| 20260504030127 | 23 | 308 | 4.8 | 6.4 | 0.00 | 0.00 | 0.00 | 31 | 1008.0 |
| 20260504025627 | 25 | 311 | 3.2 | 6.4 | 0.00 | 0.00 | 0.00 | 33 | 1008.0 |
| 20260504025127 | 26 | 303 | 3.2 | 8.0 | 0.00 | 0.00 | 0.00 | 28 | 1008.0 |
| 20260504024627 | 26 | 265 | 3.2 | 3.2 | 0.00 | 0.00 | 0.00 | 26 | 1008.0 |
| 20260504024127 | 26 | 298 | 3.2 | 8.0 | 0.00 | 0.00 | 0.00 | 26 | 1008.0 |
| 20260504023631 | 26 | 296 | 1.6 | 3.2 | 0.00 | 0.00 | 0.00 | 27 | 1008.0 |
| 20260504023127 | 27 | 295 | 1.6 | 4.8 | 0.00 | 0.00 | 0.00 | 25 | 1008.0 |
| 20260504022627 | 27 | 264 | 3.2 | 6.4 | 0.00 | 0.00 | 0.00 | 25 | 1008.0 |
| 20260504022127 | 27 | 300 | 6.4 | 9.7 | 0.00 | 0.00 | 0.00 | 24 | 1008.0 |
| 20260504021627 | 27 | 301 | 3.2 | 4.8 | 0.00 | 0.00 | 0.00 | 25 | 1008.0 |
| 20260504021127 | 27 | 283 | 4.8 | 8.0 | 0.00 | 0.00 | 0.00 | 25 | 1008.0 |
| 20260504020627 | 27 | 225 | 3.2 | 6.4 | 0.00 | 0.00 | 0.00 | 24 | 1008.0 |
| 20260504020127 | 27 | 256 | 4.8 | 8.0 | 0.00 | 0.00 | 0.00 | 25 | 1008.0 |
| 20260504015627 | 27 | 262 | 6.4 | 11.3 | 0.00 | 0.00 | 0.00 | 23 | 1008.0 |
| 20260504015128 | 28 | 313 | 3.2 | 6.4 | 0.00 | 0.00 | 0.00 | 24 | 1008.0 |
| 20260504014627 | 28 | 256 | 8.0 | 11.3 | 0.00 | 0.00 | 0.00 | 24 | 1008.0 |
| 20260504014127 | 28 | 286 | 4.8 | 9.7 | 0.00 | 0.00 | 0.00 | 23 | 1008.0 |
| 20260504013628 | 28 | 268 | 8.0 | 14.5 | 0.00 | 0.00 | 0.00 | 23 | 1008.0 |
| 20260504013127 | 28 | 330 | 3.2 | 6.4 | 0.00 | 0.00 | 0.00 | 23 | 1008.0 |
| 20260504012627 | 28 | 289 | 3.2 | 4.8 | 0.00 | 0.00 | 0.00 | 22 | 1008.0 |
| 20260504012130 | 28 | 244 | 0.0 | 0.0 | 0.00 | 0.00 | 0.00 | 24 | 1008.0 |
| 20260504011627 | 28 | 264 | 8.0 | 11.3 | 0.00 | 0.00 | 0.00 | 23 | 1008.0 |
| 20260504011127 | 28 | 267 | 6.4 | 11.3 | 0.00 | 0.00 | 0.00 | 25 | 1008.0 |
| 20260504010627 | 28 | 253 | 3.2 | 6.4 | 0.00 | 0.00 | 0.00 | 24 | 1008.0 |
| 20260504010127 | 28 | 272 | 9.7 | 17.7 | 0.00 | 0.00 | 0.00 | 24 | 1008.0 |
| 20260504005627 | 28 | 287 | 3.2 | 6.4 | 0.00 | 0.00 | 0.00 | 24 | 1008.0 |
| 20260504005128 | 28 | 264 | 6.4 | 9.7 | 0.00 | 0.00 | 0.00 | 25 | 1008.0 |
| 20260504004627 | 28 | 264 | 4.8 | 6.4 | 0.00 | 0.00 | 0.00 | 25 | 1008.0 |
| 20260504004127 | 28 | 253 | 6.4 | 14.5 | 0.00 | 0.00 | 0.00 | 24 | 1008.0 |
| 20260504003627 | 28 | 280 | 8.0 | 11.3 | 0.00 | 0.00 | 0.00 | 26 | 1008.0 |
| 20260504003127 | 28 | 265 | 4.8 | 6.4 | 0.00 | 0.00 | 0.00 | 26 | 1008.0 |
| 20260504002627 | 28 | 257 | 3.2 | 6.4 | 0.00 | 0.00 | 0.00 | 26 | 1008.0 |
| 20260504002127 | 28 | 281 | 4.8 | 6.4 | 0.00 | 0.00 | 0.00 | 27 | 1008.0 |
| 20260504001627 | 28 | 237 | 4.8 | 8.0 | 0.00 | 0.00 | 0.00 | 26 | 1008.0 |
| 20260504001127 | 28 | 227 | 4.8 | 9.7 | 0.00 | 0.00 | 0.00 | 28 | 1009.0 |
| 20260504000627 | 28 | 309 | 4.8 | 8.0 | 0.00 | 0.00 | 0.00 | 25 | 1009.0 |
| 20260504000127 | 28 | 274 | 6.4 | 9.7 | 0.00 | 0.00 | 0.00 | 26 | 1009.0 |
| 20260503235627 | 28 | 262 | 3.2 | 6.4 | 0.00 | 0.00 | 0.00 | 28 | 1009.0 |
| 20260503235127 | 28 | 278 | 8.0 | 11.3 | 0.00 | 0.00 | 0.00 | 28 | 1009.0 |
| 20260503234627 | 28 | 278 | 8.0 | 12.9 | 0.00 | 0.00 | 0.00 | 26 | 1009.0 |
| 20260503234128 | 28 | 264 | 8.0 | 12.9 | 0.00 | 0.00 | 0.00 | 29 | 1009.0 |
| 20260503233627 | 28 | 268 | 4.8 | 9.7 | 0.00 | 0.00 | 0.00 | 30 | 1009.0 |
| 20260503233127 | 28 | 243 | 3.2 | 8.0 | 0.00 | 0.00 | 0.00 | 30 | 1009.0 |
| 20260503232627 | 28 | 261 | 6.4 | 9.7 | 0.00 | 0.00 | 0.00 | 30 | 1009.0 |
| 20260503232127 | 28 | 241 | 4.8 | 9.7 | 0.00 | 0.00 | 0.00 | 32 | 1009.0 |
| 20260503231628 | 27 | 252 | 4.8 | 9.7 | 0.00 | 0.00 | 0.00 | 31 | 1009.0 |
| 20260503231127 | 28 | 264 | 3.2 | 6.4 | 0.00 | 0.00 | 0.00 | 31 | 1009.0 |
| 20260503230627 | 28 | 253 | 3.2 | 6.4 | 0.00 | 0.00 | 0.00 | 30 | 1009.0 |
| 20260503230128 | 28 | 248 | 4.8 | 8.0 | 0.00 | 0.00 | 0.00 | 31 | 1009.0 |
| 20260503225627 | 28 | 258 | 4.8 | 9.7 | 0.00 | 0.00 | 0.00 | 31 | 1009.0 |
| 20260503225127 | 27 | 265 | 4.8 | 8.0 | 0.00 | 0.00 | 0.00 | 32 | 1009.0 |
| 20260503224627 | 27 | 274 | 4.8 | 8.0 | 0.00 | 0.00 | 0.00 | 32 | 1009.0 |
| 20260503224127 | 27 | 269 | 4.8 | 9.7 | 0.00 | 0.00 | 0.00 | 31 | 1009.0 |
| 20260503223627 | 28 | 259 | 4.8 | 9.7 | 0.00 | 0.00 | 0.00 | 31 | 1010.0 |
| 20260503223127 | 28 | 259 | 4.8 | 11.3 | 0.00 | 0.00 | 0.00 | 32 | 1010.0 |
| 20260503222627 | 28 | 269 | 6.4 | 12.9 | 0.00 | 0.00 | 0.00 | 32 | 1010.0 |
| 20260503222127 | 27 | 213 | 4.8 | 8.0 | 0.00 | 0.00 | 0.00 | 31 | 1010.0 |
| 20260503221627 | 27 | 279 | 6.4 | 11.3 | 0.00 | 0.00 | 0.00 | 31 | 1010.0 |
| 20260503221127 | 27 | 279 | 6.4 | 9.7 | 0.00 | 0.00 | 0.00 | 33 | 1010.0 |
| 20260503220627 | 27 | 241 | 6.4 | 9.7 | 0.00 | 0.00 | 0.00 | 33 | 1010.0 |
| 20260503220127 | 27 | 270 | 8.0 | 12.9 | 0.00 | 0.00 | 0.00 | 33 | 1010.0 |
| 20260503215627 | 27 | 272 | 8.0 | 11.3 | 0.00 | 0.00 | 0.00 | 32 | 1010.0 |
| 20260503215128 | 27 | 221 | 6.4 | 12.9 | 0.00 | 0.00 | 0.00 | 32 | 1010.0 |
| 20260503214627 | 27 | 262 | 9.7 | 14.5 | 0.00 | 0.00 | 0.00 | 32 | 1010.0 |
| 20260503214127 | 27 | 251 | 4.8 | 9.7 | 0.00 | 0.00 | 0.00 | 32 | 1010.0 |
| 20260503213627 | 27 | 278 | 3.2 | 6.4 | 0.00 | 0.00 | 0.00 | 34 | 1010.0 |
| 20260503213127 | 27 | 269 | 8.0 | 14.5 | 0.00 | 0.00 | 0.00 | 33 | 1010.0 |
| 20260503212627 | 27 | 272 | 9.7 | 14.5 | 0.00 | 0.00 | 0.00 | 33 | 1010.0 |
| 20260503212127 | 27 | 271 | 9.7 | 14.5 | 0.00 | 0.00 | 0.00 | 33 | 1010.0 |
| 20260503211627 | 27 | 270 | 11.3 | 16.1 | 0.00 | 0.00 | 0.00 | 32 | 1010.0 |
| 20260503211127 | 27 | 243 | 6.4 | 14.5 | 0.00 | 0.00 | 0.00 | 33 | 1011.0 |
| 20260503210627 | 27 | 263 | 9.7 | 17.7 | 0.00 | 0.00 | 0.00 | 33 | 1011.0 |
| 20260503210127 | 27 | 278 | 9.7 | 16.1 | 0.00 | 0.00 | 0.00 | 33 | 1011.0 |
| 20260503205627 | 27 | 242 | 4.8 | 9.7 | 0.00 | 0.00 | 0.00 | 33 | 1011.0 |
| 20260503205127 | 26 | 263 | 6.4 | 11.3 | 0.00 | 0.00 | 0.00 | 33 | 1011.0 |
| 20260503204627 | 26 | 227 | 3.2 | 8.0 | 0.00 | 0.00 | 0.00 | 33 | 1011.0 |
| 20260503204129 | 26 | 279 | 11.3 | 14.5 | 0.00 | 0.00 | 0.00 | 34 | 1011.0 |
| 20260503203627 | 26 | 273 | 8.0 | 19.3 | 0.00 | 0.00 | 0.00 | 33 | 1011.0 |
| 20260503203127 | 26 | 250 | 4.8 | 9.7 | 0.00 | 0.00 | 0.00 | 34 | 1011.0 |
| 20260503202627 | 26 | 277 | 9.7 | 14.5 | 0.00 | 0.00 | 0.00 | 33 | 1011.0 |
| 20260503202128 | 25 | 283 | 9.7 | 14.5 | 0.00 | 0.00 | 0.00 | 34 | 1011.0 |
| 20260503201627 | 25 | 276 | 8.0 | 14.5 | 0.00 | 0.00 | 0.00 | 33 | 1011.0 |
| 20260503201128 | 25 | 277 | 8.0 | 11.3 | 0.00 | 0.00 | 0.00 | 34 | 1011.0 |
| 20260503200627 | 25 | 283 | 8.0 | 12.9 | 0.00 | 0.00 | 0.00 | 34 | 1012.0 |
| 20260503200128 | 25 | 275 | 11.3 | 14.5 | 0.00 | 0.00 | 0.00 | 33 | 1012.0 |
| 20260503195627 | 25 | 284 | 6.4 | 12.9 | 0.00 | 0.00 | 0.00 | 34 | 1012.0 |
| 20260503195127 | 25 | 258 | 9.7 | 12.9 | 0.00 | 0.00 | 0.00 | 33 | 1012.0 |
| 20260503194627 | 25 | 265 | 8.0 | 12.9 | 0.00 | 0.00 | 0.00 | 34 | 1012.0 |
| 20260503194128 | 24 | 247 | 6.4 | 8.0 | 0.00 | 0.00 | 0.00 | 36 | 1012.0 |
| 20260503193627 | 24 | 269 | 9.7 | 14.5 | 0.00 | 0.00 | 0.00 | 35 | 1012.0 |
| 20260503193127 | 24 | 268 | 9.7 | 12.9 | 0.00 | 0.00 | 0.00 | 35 | 1012.0 |
| 20260503192627 | 24 | 258 | 8.0 | 12.9 | 0.00 | 0.00 | 0.00 | 35 | 1012.0 |
| 20260503192128 | 24 | 272 | 8.0 | 14.5 | 0.00 | 0.00 | 0.00 | 35 | 1012.0 |
| 20260503191627 | 23 | 266 | 9.7 | 12.9 | 0.00 | 0.00 | 0.00 | 34 | 1012.0 |
| 20260503190652 | 23 | 253 | 9.7 | 14.5 | 0.00 | 0.00 | 0.00 | 34 | 1012.0 |
| 20260503190127 | 23 | 257 | 6.4 | 9.7 | 0.00 | 0.00 | 0.00 | 36 | 1012.0 |
| 20260503185627 | 23 | 274 | 9.7 | 14.5 | 0.00 | 0.00 | 0.00 | 35 | 1013.0 |
| 20260503185127 | 22 | 270 | 11.3 | 16.1 | 0.00 | 0.00 | 0.00 | 35 | 1013.0 |
| 20260503184627 | 22 | 267 | 8.0 | 12.9 | 0.00 | 0.00 | 0.00 | 36 | 1013.0 |
| 20260503184127 | 22 | 267 | 8.0 | 14.5 | 0.00 | 0.00 | 0.00 | 36 | 1013.0 |
| 20260503183627 | 22 | 265 | 9.7 | 14.5 | 0.00 | 0.00 | 0.00 | 37 | 1013.0 |
| 20260503183127 | 22 | 254 | 8.0 | 14.5 | 0.00 | 0.00 | 0.00 | 37 | 1013.0 |
| 20260503182627 | 21 | 266 | 8.0 | 14.5 | 0.00 | 0.00 | 0.00 | 38 | 1013.0 |
| 20260503182127 | 21 | 264 | 8.0 | 12.9 | 0.00 | 0.00 | 0.00 | 38 | 1013.0 |
| 20260503181627 | 21 | 263 | 8.0 | 12.9 | 0.00 | 0.00 | 0.00 | 38 | 1013.0 |
| 20260503181128 | 21 | 283 | 11.3 | 16.1 | 0.00 | 0.00 | 0.00 | 38 | 1013.0 |
| 20260503180628 | 21 | 262 | 6.4 | 9.7 | 0.00 | 0.00 | 0.00 | 39 | 1013.0 |
| 20260503180128 | 20 | 267 | 6.4 | 9.7 | 0.00 | 0.00 | 0.00 | 39 | 1013.0 |
| 20260503175627 | 20 | 277 | 9.7 | 14.5 | 0.00 | 0.00 | 0.00 | 39 | 1013.0 |
| 20260503175127 | 20 | 269 | 6.4 | 11.3 | 0.00 | 0.00 | 0.00 | 40 | 1014.0 |
| 20260503174627 | 20 | 255 | 4.8 | 6.4 | 0.00 | 0.00 | 0.00 | 42 | 1014.0 |
| 20260503174127 | 19 | 286 | 9.7 | 12.9 | 0.00 | 0.00 | 0.00 | 41 | 1014.0 |
| 20260503173627 | 18 | 265 | 8.0 | 11.3 | 0.00 | 0.00 | 0.00 | 41 | 1014.0 |
| 20260503173127 | 18 | 257 | 8.0 | 14.5 | 0.00 | 0.00 | 0.00 | 41 | 1014.0 |
| 20260503172629 | 18 | 253 | 4.8 | 9.7 | 0.00 | 0.00 | 0.00 | 42 | 1014.0 |
| 20260503172127 | 18 | 278 | 8.0 | 14.5 | 0.00 | 0.00 | 0.00 | 43 | 1014.0 |
| 20260503171627 | 18 | 271 | 4.8 | 9.7 | 0.00 | 0.00 | 0.00 | 44 | 1014.0 |
| 20260503171127 | 18 | 272 | 8.0 | 11.3 | 0.00 | 0.00 | 0.00 | 43 | 1014.0 |
| 20260503170627 | 18 | 270 | 8.0 | 12.9 | 0.00 | 0.00 | 0.00 | 43 | 1014.0 |
| 20260503170127 | 18 | 272 | 6.4 | 9.7 | 0.00 | 0.00 | 0.00 | 42 | 1014.0 |
| 20260503160127 | 15 | 285 | 4.8 | 9.7 | 0.00 | 0.00 | 0.00 | 50 | 1015.0 |
| 20260503150627 | 12 | 280 | 3.2 | 6.4 | 0.00 | 0.00 | 0.00 | 57 | 1016.0 |
| 20260503150127 | 12 | 235 | 3.2 | 4.8 | 0.00 | 0.00 | 0.00 | 58 | 1016.0 |
| 20260503140128 | 6 | 0 | 0.0 | 0.0 | 0.00 | 0.00 | 0.00 | 76 | 1016.0 |
| 20260503131127 | 4 | 123 | 3.2 | 3.2 | 0.00 | 0.00 | 0.00 | 80 | 1016.0 |
| 20260503130627 | 3 | 113 | 1.6 | 1.6 | 0.00 | 0.00 | 0.00 | 80 | 1016.0 |
| 20260503130127 | 3 | 124 | 3.2 | 4.8 | 0.00 | 0.00 | 0.00 | 80 | 1015.0 |
| 20260503120127 | 5 | 0 | 0.0 | 0.0 | 0.00 | 0.00 | 0.00 | 78 | 1015.0 |
| 20260503110627 | 6 | 191 | 1.6 | 1.6 | 0.00 | 0.00 | 0.00 | 77 | 1015.0 |
| 20260503110127 | 6 | 0 | 0.0 | 0.0 | 0.00 | 0.00 | 0.00 | 79 | 1015.0 |